Hourly Weather Rudu-Shurguyal

Today, 14 April, Wednesday

Time Temperature Precipitation Wind Pressure Humidity
00:00 +2°C° 0 mm 3 mps 752 mmHg 90%
01:00 +2°C° 0 mm 3 mps 752 mmHg 88%
02:00 +1°C° 0 mm 3 mps 752 mmHg 86%
03:00 +1°C° 0 mm 2 mps 752 mmHg 89%
04:00 +2°C° 0 mm 2 mps 752 mmHg 89%
05:00 +2°C° 0 mm 2 mps 752 mmHg 89%
06:00 +2°C° 0 mm 2 mps 752 mmHg 89%
07:00 +3°C° 0 mm 2 mps 751 mmHg 91%
08:00 +4°C° 0 mm 2 mps 751 mmHg 94%
09:00 +5°C° 0 mm 2 mps 751 mmHg 96%
10:00 +7°C° 0 mm 2 mps 751 mmHg 95%
11:00 +8°C° 0 mm 3 mps 751 mmHg 94%
12:00 +9°C° 0 mm 3 mps 751 mmHg 93%
13:00 +10°C° 0 mm 3 mps 751 mmHg 90%
14:00 +11°C° 0 mm 3 mps 750 mmHg 88%
15:00 +12°C° 0 mm 3 mps 750 mmHg 86%
16:00 +11°C° 0 mm 3 mps 749 mmHg 85%
17:00 +10°C° 0 mm 3 mps 749 mmHg 85%
18:00 +9°C° 0 mm 3 mps 749 mmHg 85%
19:00 +8°C° 0 mm 3 mps 748 mmHg 86%
20:00 +8°C° 0 mm 3 mps 748 mmHg 86%
21:00 +7°C° 0 mm 3 mps 748 mmHg 87%
22:00 +7°C° 0 mm 3 mps 748 mmHg 89%
23:00 +5°C° 0 mm 3 mps 747 mmHg 90%

Tomorrow, 15 April, Thursday

Time Temperature Precipitation Wind Pressure Humidity
00:00 +5°C° 0 mm 3 mps 747 mmHg 91%
01:00 +5°C° 0 mm 3 mps 747 mmHg 91%
02:00 +6°C° 0 mm 2 mps 747 mmHg 92%
03:00 +6°C° 0 mm 2 mps 747 mmHg 92%
04:00 +6°C° 0 mm 2 mps 746 mmHg 93%
05:00 +6°C° 0 mm 2 mps 746 mmHg 93%
06:00 +6°C° 0 mm 2 mps 746 mmHg 93%
07:00 +8°C° 0 mm 2 mps 746 mmHg 89%
08:00 +10°C° 0 mm 3 mps 746 mmHg 85%
09:00 +12°C° 0 mm 3 mps 746 mmHg 80%
10:00 +13°C° 0 mm 3 mps 746 mmHg 76%
11:00 +15°C° 0 mm 2 mps 745 mmHg 71%
12:00 +16°C° 0 mm 2 mps 745 mmHg 66%
13:00 +17°C° 0 mm 2 mps 745 mmHg 64%
14:00 +17°C° 0 mm 2 mps 745 mmHg 62%
15:00 +17°C° 0 mm 2 mps 744 mmHg 61%
16:00 +16°C° 0.1 mm 1 mps 744 mmHg 65%
17:00 +15°C° 0.1 mm 1 mps 744 mmHg 70%
18:00 +14°C° 0.1 mm 1 mps 744 mmHg 74%
19:00 +11°C° 0.3 mm 3 mps 744 mmHg 80%
20:00 +9°C° 0.3 mm 5 mps 745 mmHg 86%
21:00 +6°C° 0.3 mm 7 mps 745 mmHg 92%
22:00 +5°C° 0.3 mm 7 mps 746 mmHg 91%
23:00 +5°C° 0.3 mm 6 mps 746 mmHg 91%

Day after tomorrow, 16 April, Friday

Time Temperature Precipitation Wind Pressure Humidity
00:00 +4°C° 0.3 mm 6 mps 746 mmHg 90%
01:00 +4°C° 0.3 mm 6 mps 747 mmHg 89%
02:00 +3°C° 0.3 mm 6 mps 747 mmHg 88%
03:00 +3°C° 0.3 mm 7 mps 747 mmHg 86%
04:00 +3°C° 0.1 mm 6 mps 747 mmHg 85%
05:00 +2°C° 0.1 mm 6 mps 748 mmHg 83%
06:00 +2°C° 0.1 mm 6 mps 748 mmHg 82%
07:00 +3°C° 0 mm 6 mps 749 mmHg 77%
08:00 +3°C° 0 mm 6 mps 749 mmHg 71%
09:00 +4°C° 0 mm 6 mps 749 mmHg 66%
10:00 +5°C° 0 mm 6 mps 749 mmHg 60%
11:00 +7°C° 0 mm 6 mps 749 mmHg 55%
12:00 +8°C° 0 mm 6 mps 750 mmHg 49%
13:00 +8°C° 0 mm 6 mps 750 mmHg 47%
14:00 +9°C° 0 mm 6 mps 750 mmHg 45%
15:00 +9°C° 0 mm 6 mps 750 mmHg 42%
16:00 +8°C° 0 mm 5 mps 750 mmHg 45%
17:00 +7°C° 0 mm 5 mps 750 mmHg 48%
18:00 +6°C° 0 mm 4 mps 750 mmHg 51%
19:00 +5°C° 0 mm 4 mps 750 mmHg 56%
20:00 +4°C° 0 mm 4 mps 750 mmHg 61%
21:00 +3°C° 0 mm 3 mps 751 mmHg 66%
22:00 +2°C° 0 mm 3 mps 751 mmHg 68%
23:00 +1°C° 0 mm 3 mps 751 mmHg 70%

17 April, Saturday

Time Temperature Precipitation Wind Pressure Humidity
00:00 +1°C° 0 mm 3 mps 751 mmHg 72%
01:00 0°C° 0 mm 3 mps 751 mmHg 73%
02:00 0°C° 0 mm 3 mps 751 mmHg 74%
03:00 0°C° 0 mm 3 mps 751 mmHg 75%
04:00 0°C° 0 mm 3 mps 751 mmHg 73%
05:00 0°C° 0 mm 3 mps 751 mmHg 71%
06:00 0°C° 0 mm 3 mps 752 mmHg 69%
07:00 +2°C° 0 mm 3 mps 752 mmHg 62%
08:00 +4°C° 0 mm 3 mps 752 mmHg 55%
09:00 +6°C° 0 mm 4 mps 752 mmHg 48%
10:00 +7°C° 0 mm 4 mps 752 mmHg 46%
11:00 +7°C° 0 mm 4 mps 752 mmHg 44%
12:00 +8°C° 0 mm 4 mps 752 mmHg 41%
13:00 +10°C° 0 mm 4 mps 751 mmHg 41%
14:00 +10°C° 0 mm 4 mps 751 mmHg 41%
15:00 +11°C° 0 mm 4 mps 751 mmHg 41%
16:00 +10°C° 0 mm 4 mps 751 mmHg 45%
17:00 +9°C° 0 mm 3 mps 751 mmHg 50%
18:00 +8°C° 0 mm 3 mps 751 mmHg 54%
19:00 +7°C° 0 mm 3 mps 751 mmHg 58%
20:00 +5°C° 0 mm 3 mps 750 mmHg 62%
21:00 +4°C° 0 mm 3 mps 750 mmHg 66%
22:00 +4°C° 0 mm 3 mps 751 mmHg 69%
23:00 +3°C° 0 mm 3 mps 751 mmHg 71%

18 April, Sunday

Time Temperature Precipitation Wind Pressure Humidity
00:00 +2°C° 0 mm 3 mps 751 mmHg 73%
01:00 +2°C° 0 mm 3 mps 751 mmHg 75%
02:00 +2°C° 0 mm 3 mps 751 mmHg 76%
03:00 +2°C° 0 mm 2 mps 751 mmHg 77%
04:00 +2°C° 0 mm 2 mps 751 mmHg 77%
05:00 +3°C° 0 mm 2 mps 751 mmHg 77%
06:00 +3°C° 0 mm 2 mps 751 mmHg 77%
07:00 +3°C° 0 mm 3 mps 751 mmHg 71%
08:00 +5°C° 0 mm 4 mps 751 mmHg 65%
09:00 +7°C° 0 mm 4 mps 751 mmHg 59%
10:00 +7°C° 0 mm 5 mps 751 mmHg 56%
11:00 +8°C° 0 mm 5 mps 751 mmHg 52%
12:00 +9°C° 0 mm 5 mps 751 mmHg 49%
13:00 +8°C° 0 mm 5 mps 752 mmHg 53%
14:00 +7°C° 0 mm 6 mps 752 mmHg 57%
15:00 +5°C° 0 mm 6 mps 752 mmHg 60%
16:00 +6°C° 0 mm 5 mps 752 mmHg 58%
17:00 +5°C° 0 mm 5 mps 752 mmHg 56%
18:00 +5°C° 0 mm 4 mps 753 mmHg 54%
19:00 +4°C° 0 mm 4 mps 753 mmHg 54%
20:00 +3°C° 0 mm 4 mps 753 mmHg 54%
21:00 0°C° 0 mm 4 mps 754 mmHg 54%
22:00 0°C° 0 mm 4 mps 754 mmHg 57%
23:00 0°C° 0 mm 3 mps 754 mmHg 59%

19 April, Monday

Time Temperature Precipitation Wind Pressure Humidity
00:00 -1°C° 0 mm 3 mps 755 mmHg 62%
01:00 -2°C° 0 mm 3 mps 755 mmHg 62%
02:00 -2°C° 0 mm 3 mps 756 mmHg 63%
03:00 -4°C° 0 mm 3 mps 756 mmHg 63%
04:00 -2°C° 0 mm 3 mps 756 mmHg 60%
05:00 -2°C° 0 mm 3 mps 756 mmHg 57%
06:00 -3°C° 0 mm 4 mps 757 mmHg 54%
07:00 -1°C° 0 mm 4 mps 757 mmHg 49%
08:00 0°C° 0 mm 4 mps 757 mmHg 44%
09:00 +1°C° 0 mm 5 mps 757 mmHg 39%
10:00 +3°C° 0 mm 4 mps 757 mmHg 38%
11:00 +3°C° 0 mm 4 mps 757 mmHg 37%
12:00 +4°C° 0 mm 4 mps 757 mmHg 35%
13:00 +4°C° 0 mm 4 mps 757 mmHg 34%
14:00 +5°C° 0 mm 4 mps 756 mmHg 33%
15:00 +5°C° 0 mm 3 mps 756 mmHg 32%
16:00 +4°C° 0 mm 3 mps 756 mmHg 35%
17:00 +4°C° 0 mm 3 mps 756 mmHg 38%
18:00 +4°C° 0 mm 2 mps 756 mmHg 42%
19:00 +3°C° 0 mm 2 mps 756 mmHg 45%
20:00 +2°C° 0 mm 2 mps 756 mmHg 48%
21:00 -1°C° 0 mm 2 mps 757 mmHg 51%
22:00 -1°C° 0 mm 2 mps 757 mmHg 52%
23:00 -1°C° 0 mm 2 mps 757 mmHg 52%
Show more